This is the latest recevied weather packets stored in our database for station/object KX4O-13. If no packets are shown the sender has not sent any weather packets the latest 10 day(s).
| Time | Temp. | Humidity | Pressure | Rain* | Wind** | Luminosity | Snow |
|---|---|---|---|---|---|---|---|
| 1778012153 | 27.22° C | 30% | 1009.1 hPa | 0 mm | - | 534 W/m² | - |
| 1778011855 | 27.22° C | 29% | 1009.1 hPa | 0 mm | - | 492 W/m² | - |
| 1778011553 | 27.78° C | 29% | 1009 hPa | 0 mm | - | 489 W/m² | - |
| 1778011253 | 28.33° C | 28% | 1009.1 hPa | 0 mm | - | 591 W/m² | - |
| 1778010953 | 27.78° C | 29% | 1009 hPa | 0 mm | - | 610 W/m² | - |
| 1778010653 | 27.78° C | 30% | 1009.2 hPa | 0 mm | - | 663 W/m² | - |
| 1778010353 | 27.78° C | 31% | 1009.1 hPa | 0 mm | - | 587 W/m² | - |
| 1778010053 | 27.78° C | 29% | 1009.1 hPa | 0 mm | - | 612 W/m² | - |
| 1778009753 | 27.78° C | 28% | 1009.2 hPa | 0 mm | - | 671 W/m² | - |
| 1778009455 | 27.78° C | 26% | 1009.2 hPa | 0 mm | - | 664 W/m² | - |
| 1778009153 | 27.78° C | 26% | 1009.3 hPa | 0 mm | - | 594 W/m² | - |
| 1778008853 | 27.78° C | 26% | 1009.4 hPa | 0 mm | - | 689 W/m² | - |
| 1778008553 | 27.78° C | 28% | 1009.3 hPa | 0 mm | - | 735 W/m² | - |
| 1778008253 | 27.78° C | 27% | 1009.5 hPa | 0 mm | - | 782 W/m² | - |
| 1778007953 | 27.78° C | 28% | 1009.6 hPa | 0 mm | - | 763 W/m² | - |
| 1778007653 | 27.78° C | 30% | 1009.7 hPa | 0 mm | - | 788 W/m² | - |
| 1778007353 | 27.78° C | 27% | 1009.7 hPa | 0 mm | - | 747 W/m² | - |
| 1778007055 | 28.33° C | 28% | 1009.9 hPa | 0 mm | - | 773 W/m² | - |
| 1778006753 | 27.78° C | 30% | 1009.9 hPa | 0 mm | - | 766 W/m² | - |
| 1778006453 | 27.78° C | 30% | 1010 hPa | 0 mm | - | 837 W/m² | - |
| 1778006153 | 28.33° C | 31% | 1010 hPa | 0 mm | - | 766 W/m² | - |
| 1778005853 | 27.78° C | 31% | 1010.2 hPa | 0 mm | - | 837 W/m² | - |
| 1778005553 | 27.78° C | 32% | 1010.2 hPa | 0 mm | - | 828 W/m² | - |
| 1778005253 | 27.78° C | 32% | 1010.3 hPa | 0 mm | - | 842 W/m² | - |
| 1778004953 | 27.78° C | 32% | 1010.3 hPa | 0 mm | - | 807 W/m² | - |
* Rain latest hour (hover to see other rain measurements)
** Current wind speed in m/s (hover to see current wind gust speed)